This is the latest recevied weather packets stored in our database for station/object AA7VG. If no packets are shown the sender has not sent any weather packets the latest 10 day(s).
| Time | Temp. | Humidity | Pressure | Rain* | Wind** | Luminosity | Snow |
|---|---|---|---|---|---|---|---|
| 1777699160 | 10.56° C | 37% | 1017.2 hPa | 0 mm | - | - | - |
| 1777698858 | 10.56° C | 35% | 1017 hPa | 0 mm | - | - | - |
| 1777698554 | 10.56° C | 34% | 1017.4 hPa | 0 mm | - | - | - |
| 1777698251 | 11.11° C | 33% | 1017.2 hPa | 0 mm | - | - | - |
| 1777697949 | 11.11° C | 33% | 1017.4 hPa | 0 mm | - | - | - |
| 1777697645 | 11.11° C | 34% | 1017.2 hPa | 0 mm | - | - | - |
| 1777697342 | 11.11° C | 35% | 1017.4 hPa | 0 mm | - | - | - |
| 1777697038 | 10.56° C | 36% | 1017.5 hPa | 0 mm | - | - | - |
| 1777696735 | 10.56° C | 36% | 1017.2 hPa | 0 mm | - | - | - |
| 1777696433 | 10.56° C | 37% | 1017.1 hPa | 0 mm | - | - | - |
| 1777696132 | 10.56° C | 38% | 1017.2 hPa | 0 mm | - | - | - |
| 1777695829 | 10.56° C | 38% | 1017.2 hPa | 0 mm | - | - | - |
| 1777695527 | 10.56° C | 38% | 1017.1 hPa | 0 mm | - | - | - |
| 1777695224 | 11.11° C | 38% | 1017.1 hPa | 0 mm | - | - | - |
| 1777694921 | 11.11° C | 37% | 1017.1 hPa | 0 mm | - | - | - |
| 1777694618 | 11.67° C | 36% | 1016.9 hPa | 0 mm | - | - | - |
| 1777694314 | 11.67° C | 36% | 1016.9 hPa | 0 mm | - | - | - |
| 1777694011 | 11.67° C | 35% | 1017.4 hPa | 0 mm | - | - | - |
| 1777693708 | 11.67° C | 36% | 1017.1 hPa | 0 mm | - | - | - |
| 1777693407 | 12.22° C | 34% | 1017 hPa | 0 mm | - | - | - |
| 1777693105 | 12.22° C | 31% | 1016.9 hPa | 0 mm | - | - | - |
| 1777692802 | 12.78° C | 30% | 1016.9 hPa | 0 mm | - | - | - |
| 1777692498 | 12.78° C | 28% | 1016.8 hPa | 0 mm | - | - | - |
| 1777692195 | 13.33° C | 27% | 1016.8 hPa | 0 mm | - | - | - |
| 1777691892 | 13.33° C | 26% | 1017 hPa | 0 mm | - | - | - |
* Rain latest hour (hover to see other rain measurements)
** Current wind speed in m/s (hover to see current wind gust speed)